Location: Big Sandy Campground
(37.4666°N, 119.5821°W)
Time: 23:55:56
(UTC+00:00)

H-2A R/B - Pass Details

Date: 03 August 2024
Orbit: 731 x 832 km, 98.2° (Epoch: 08 September)

Event Time Altitude Azimuth Distance (km) Brightness Sun altitude
Rises 12:16:24 0° 11° (N) 3,166 5.9 -9.4°
Reaches altitude 10° 12:18:40 10° 10° (N) 2,245 5.0 -9.0°
Maximum altitude 12:23:36 80° 285° (WNW) 758 1.9 -8.2°
Drops below altitude 10° 12:28:35 10° 198° (SSW) 2,272 4.0 -7.3°
Sets 12:30:54 0° 197° (SSW) 3,208 4.8 -6.9°
